Home > Weather > Prudhoe Bay > Past weeks

Flag for USA Weather for the Past 2 Weeks in Prudhoe Bay, Alaska, USA

Now
29 °F

Low clouds.


Feels Like: 20 °F
Forecast: 25 / 30 °F
Wind: 10 mph from Northeast

Location: Deadhorse Airport

Current Time: Apr 30, 2016 at 4:49:14 PM

Latest Report: Apr 30, 2016 at 3:53 PM


Visibility: 7 mi

Pressure: 29.85 "Hg

Humidity: 85%

Dew Point: 25 °F

Location of Prudhoe BayLocation

Historic Weather in Prudhoe Bay — Graph

°F

Prudhoe Bay Temperature Yesterday

Maximum temperature yesterday: 27 °F (at 3:53 PM)
Minimum temperature yesterday: 23 °F (at 3:53 AM)
Average temperature yesterday: 25 °F

High & Low Weather Summary for the Past Weeks

 TemperatureHumidityPressure
High29 °F (Apr 30, 3:53 PM)100% (Apr 23, 7:53 AM)30.35 "Hg (Apr 23, 7:53 AM)
Low-1 °F (Apr 23, 5:53 AM)76% (Apr 16, 4:53 AM)29.84 "Hg (Apr 27, 6:53 AM)
Average18 °F87%30.07 "Hg
* Reported Apr 15 3:53 PM — Apr 30 3:53 PM, Prudhoe Bay, Weather by CustomWeather, © 2016

Note: Actual official high and low records may vary slightly from our data, if they occured in-between our weather recording intervals... More about our weather records

Advertising

Prudhoe Bay Weather History for the Previous 24 Hours

Scroll right to see more
 ConditionsComfort  
Time TempWeatherWind HumidityBarometerVisibility
3:53 PM
Sat, Apr 30
29 °FLow clouds.10 mph85%29.85 "Hg7 mi
2:53 PM28 °FLow clouds.12 mph89%29.86 "Hg10 mi
1:53 PM27 °FLow clouds.7 mph92%29.88 "Hg8 mi
12:53 PM27 °FLow clouds.9 mph92%29.89 "Hg10 mi
11:53 AM26 °FIce fog.5 mph96%29.90 "Hg5 mi
10:53 AM25 °FIce fog.6 mph92%29.90 "Hg2 mi
9:53 AM24 °FIce fog.5 mph96%29.92 "Hg1 mi
8:53 AM23 °FIce fog.5 mph100%29.93 "Hg1 mi
7:50 AM23 °FIce fog.7 mph96%29.93 "Hg1 mi
7:01 AM23 °FIce fog.7 mph96%29.93 "Hg0 mi
5:53 AM23 °FLow clouds.9 mph92%29.94 "Hg10 mi
5:01 AM24 °FMostly cloudy.9 mph88%29.94 "Hg10 mi
3:53 AM24 °FPassing clouds.6 mph88%29.94 "Hg10 mi
2:53 AM24 °FPassing clouds.7 mph88%29.94 "Hg10 mi
1:53 AM24 °FPassing clouds.6 mph91%29.94 "Hg10 mi
12:53 AM25 °FPassing clouds.3 mph88%29.94 "Hg10 mi
11:53 PM
Fri, Apr 29
25 °FPartly sunny.6 mph85%29.94 "Hg10 mi
10:53 PM25 °FOvercast.7 mph88%29.93 "Hg10 mi
9:53 PM26 °FPartly sunny.7 mph84%29.93 "Hg10 mi
8:53 PM27 °FOvercast.3 mph81%29.93 "Hg10 mi
7:53 PM27 °FOvercast.5 mph81%29.93 "Hg10 mi
6:53 PM27 °FOvercast.No wind85%29.92 "Hg10 mi
5:53 PM27 °FOvercast.3 mph85%29.92 "Hg10 mi
4:53 PM27 °FOvercast.No wind85%29.92 "Hg10 mi
Weather by CustomWeather, © 2016

See weather overviewHow to use our weather pages